Regional Weather Roundup
Issued by NWS Sterling, VA

Home | Current Version | Previous Version | Graphics & Text | Print | Product List | Glossary On
Versions: 1 2 3 4 5 6 7 8 9 10 11 12 13 14 15 16 17 18 19 20 21 22 23 24 25 26 27 28 29 30 31 32 33 34 35 36 37 38 39 40 41 42 43 44 45 46 47 48 49
011
ASUS41 KLWX 250611
RWRLWX

REGIONAL WEATHER ROUNDUP
NATIONAL WEATHER SERVICE BALTIMORE MD/WASHINGTON DC
200 AM EDT TUE APR 25 2017

Note: "FAIR" indicates few or no clouds below 12,000 feet
with no significant weather and/or obstructions to visibility.
 TC=TEMPERATURE CELSIUS

 * =Non NWS site. Station does not report precipitation (e.g. rain,
    snow, etc.), thunder, or fog.

DCZ001-MDZ009-015-VAZ040>042-051-053>054-250700-
WASHINGTON METRO

CITY           SKY/WX    TMP DP  RH WIND       PRES   REMARKS
WASHINGTON NAT CLOUDY    53  51  93 NE13      29.94F
DULLES         CLOUDY    51  48  89 NE6       29.94F
ANDREWS AFB    CLOUDY    51  50  95 NE13      29.91F
FT BELVOIR     CLOUDY    52  50  93 N6        29.92F
QUANTICO       CLOUDY    55  54  96 NE13      29.92F
COLLEGE PARK*  CLOUDY    51  49  93 NE7       29.94F
LEESBURG*      CLOUDY    52  52 100 NE8       29.95F
MANASSAS*        N/A     52  50  93 N5        29.94F

$$

MDZ006>007-011-014-250700-
BALTIMORE METRO

CITY           SKY/WX    TMP DP  RH WIND       PRES   REMARKS
BWI AIRPORT    LGT RAIN  53  51  93 E13       29.96F FOG
MD SCIENCE CTR   N/A     55  46  71 MISG      29.97F
MARTIN STATE   CLOUDY    54  52  94 NE7       29.99S
ANNAPOLIS      CLOUDY    54  52  93 N6        29.94F
FORT MEADE*    CLOUDY    52  48  87 NE6       29.97F

$$

MDZ012-015-019>023-250700-
MARYLAND EASTERN SHORE

CITY           SKY/WX    TMP DP  RH WIND       PRES   REMARKS
OCEAN CITY     CLOUDY    53  53 100 NE13      29.90F FOG
SALISBURY      CLOUDY    55  55 100 NE12      29.90F
BAY BRIDGE AP* CLOUDY    54  52  94 NE8       29.94F
CAMBRIDGE*     CLOUDY    55  54  94 E13       29.91F
EASTON*        CLOUDY    56  54  92 E12G18    29.97F

$$

MDZ017>025-250700-
SOUTHERN MARYLAND

CITY           SKY/WX    TMP DP  RH WIND       PRES   REMARKS
PATUXENT RIVER CLOUDY    56  56 100 NE9       29.89F
ST INIGOES     CLOUDY    57  56  96 NE16G22   29.86F
LEONARDTOWN*   CLOUDY    54  54 100 NE6       29.90F

$$

MDZ003>005-250700-
NORTH CENTRAL MARYLAND

CITY           SKY/WX    TMP DP  RH WIND       PRES   REMARKS
FREDERICK*     CLOUDY    54  50  87 N8        30.00F
HAGERSTOWN APT CLOUDY    53  45  74 NE9       29.97F
WESTMINSTER*   CLOUDY    54  46  76 E8        29.97S

$$

MDZ501>502-250700-
WESTERN MARYLAND

CITY           SKY/WX    TMP DP  RH WIND       PRES   REMARKS
OAKLAND*       FOG       41  41 100 E18G25    29.92S VSB 1/2
CUMBERLAND*    CLOUDY    52  46  82 CALM      30.02F

$$

VAZ025>031-250700-
SHENANDOAH VALLEY

CITY           SKY/WX    TMP DP  RH WIND       PRES   REMARKS
WINCHESTER*    CLOUDY    46  45  93 CALM      29.96F
FRONT ROYAL*   CLOUDY    46  46 100 N6        29.94F
LURAY*         DRIZZLE   50  48  93 NE10      29.93F
NEW MARKET*    CLOUDY    48  46  95 N10G18    29.93F
STAUNTON*      DRIZZLE   47  47  97 N7        29.93F
WAYNESBORO*    CLOUDY    47  47 100 NW7       29.91F

$$

WVZ021-048>050-054>055-250700-
EASTERN WEST VIRGINIA PANHANDLE

CITY           SKY/WX    TMP DP  RH WIND       PRES   REMARKS
MARTINSBURG    CLOUDY    50  46  86 N3        29.96F
PETERSBURG*    CLOUDY    50  49  97 CALM      29.97F FOG

$$

VAZ036>039-050-250700-
CENTRAL FOOTHILLS

CITY           SKY/WX    TMP DP  RH WIND       PRES   REMARKS
CHARLOTTESVILL CLOUDY    53  50  89 NE13      29.89F
CULPEPER*      CLOUDY    52  51  97 N9        29.93F
ORANGE*        CLOUDY    50  50 100 N12       29.90F FOG
GORDONSVILLE*  CLOUDY    51  50  98 NE9       29.90F FOG
WARRENTON*     CLOUDY    52  49  88 NE8       29.92F

$$

VAZ055>057-250700-
NORTH AND CENTRAL PIEDMONT

CITY           SKY/WX    TMP DP  RH WIND       PRES   REMARKS
FREDERICKSBRG* CLOUDY    54  54 100 N5        29.89F
STAFFORD*      CLOUDY    52  52 100 NE7       29.94F

$$

NCZ024-NYZ072-PAZ021-071-VAZ022-071-250700-
OTHER REGIONAL OBSERVATIONS

CITY           SKY/WX    TMP DP  RH WIND       PRES   REMARKS
NEW YORK CITY  CLOUDY    50  46  86 NE10      30.12F
PHILADELPHIA   CLOUDY    52  47  83 NE12      30.02F
PITTSBURGH     CLOUDY    54  44  69 SE12      29.92F
ROANOKE        LGT RAIN  50  49  96 NE16      29.82F
RICHMOND       DRZL/FOG  55  55 100 NE13      29.83F VSB 1
RALEIGH        RAIN      59  58  96 N9        29.65F FOG

$$

ANZ530>537-250700-
MARINE OBSERVATIONS

STATION/POSITION TIME  TEMP    WIND        PRES
                       AIR SEA DIR/SP/G
                 (UTC) (F)     (DEG/KT/KT) (MB)
THOMAS PT LIGHT  0600   54 56   30/ 13/ 14   N/A
BALT KEY BRIDGE  0548   54      70/ 11/ 13 1014.5F
COVE POINT       0548   56      80/ 18/ 21 1012.7F
LEWISETTA        0548   58 60   80/ 14/ 19 1011.1F
SOLOMONS ISLAND  0548   56 60   30/  8/ 11   N/A
PINEY POINT      0548           70/ 11/ 14   N/A

$$





USA.gov is the U.S. government's official web portal to all federal, state and local government web resources and services.